TimeEDT,TemperatureF,Dew PointF,Humidity,Sea Level PressureIn,VisibilityMPH,Wind Direction,Wind SpeedMPH,Gust SpeedMPH,PrecipitationIn,Events,Conditions,WindDirDegrees,DateUTC
12:53 AM,82.0,75.9,82,30.10,10.0,ENE,4.6,-,N/A,,Mostly Cloudy,60,2012-10-05 04:53:00
1:53 AM,82.0,75.9,82,30.07,10.0,NE,4.6,-,N/A,,Mostly Cloudy,50,2012-10-05 05:53:00
2:53 AM,82.0,75.9,82,30.06,10.0,ENE,4.6,-,N/A,,Clear,60,2012-10-05 06:53:00
3:53 AM,82.0,75.9,82,30.04,10.0,ENE,3.5,-,N/A,,Mostly Cloudy,60,2012-10-05 07:53:00
4:53 AM,81.0,75.9,85,30.04,10.0,NE,3.5,-,N/A,,Scattered Clouds,50,2012-10-05 08:53:00
5:53 AM,81.0,75.9,85,30.04,10.0,Calm,Calm,-,N/A,,Scattered Clouds,0,2012-10-05 09:53:00
6:53 AM,82.0,75.0,79,30.04,10.0,ENE,5.8,-,N/A,,Scattered Clouds,70,2012-10-05 10:53:00
7:53 AM,82.0,75.0,79,30.04,10.0,East,8.1,-,N/A,,Scattered Clouds,80,2012-10-05 11:53:00
8:53 AM,84.0,73.9,72,30.05,10.0,East,6.9,-,N/A,,Scattered Clouds,80,2012-10-05 12:53:00
9:53 AM,86.0,73.9,67,30.06,10.0,NE,10.4,-,N/A,,Mostly Cloudy,50,2012-10-05 13:53:00
10:53 AM,84.9,73.9,69,30.05,10.0,East,9.2,-,0.01,,Mostly Cloudy,90,2012-10-05 14:53:00
11:53 AM,87.1,75.0,67,30.05,10.0,East,11.5,-,N/A,,Mostly Cloudy,80,2012-10-05 15:53:00
12:53 PM,87.8,73.4,62,30.02,10.0,East,11.5,-,N/A,,Mostly Cloudy,80,2012-10-05 16:53:00
1:53 PM,87.1,72.0,61,30.01,10.0,ESE,11.5,20.7,N/A,,Mostly Cloudy,110,2012-10-05 17:53:00
2:53 PM,89.1,72.0,57,29.98,10.0,ESE,12.7,-,N/A,,Mostly Cloudy,110,2012-10-05 18:53:00
3:53 PM,89.1,71.1,55,29.96,10.0,East,6.9,-,N/A,,Mostly Cloudy,100,2012-10-05 19:53:00
4:53 PM,88.0,72.0,59,29.94,10.0,East,11.5,-,N/A,,Mostly Cloudy,90,2012-10-05 20:53:00
5:53 PM,86.0,73.0,65,29.95,10.0,East,8.1,-,N/A,,Mostly Cloudy,100,2012-10-05 21:53:00
6:53 PM,84.0,73.0,69,29.96,10.0,East,9.2,-,N/A,,Mostly Cloudy,90,2012-10-05 22:53:00
7:53 PM,82.9,73.0,72,29.98,10.0,ENE,9.2,-,N/A,,Mostly Cloudy,70,2012-10-05 23:53:00
8:53 PM,82.9,73.9,74,29.99,10.0,ENE,8.1,-,N/A,,Mostly Cloudy,60,2012-10-06 00:53:00
9:53 PM,82.9,73.9,74,30.00,10.0,ENE,8.1,-,N/A,,Mostly Cloudy,60,2012-10-06 01:53:00
10:53 PM,82.9,73.9,74,30.01,10.0,East,10.4,-,N/A,,Mostly Cloudy,80,2012-10-06 02:53:00
11:53 PM,82.9,73.9,74,29.99,10.0,East,6.9,-,N/A,,Mostly Cloudy,90,2012-10-06 03:53:00